Regional Weather Roundup
Issued by NWS

Home | Current Version | Previous Version | Text Only | Print | Product List | Glossary Off
Versions: 1 2 3 4 5 6 7 8 9 10 11 12 13 14 15 16 17 18 19 20 21 22 23 24 25 26 27 28 29 30 31 32 33 34 35 36 37 38 39 40 41 42 43 44 45 46 47 48 49 50

000
ASUS43 KDMX 230106
RWRIA

WEATHER ROUNDUP FOR IOWA
NATIONAL WEATHER SERVICE DES MOINES IA
800 PM CDT SAT APR 22 2017

NOTE: "FAIR" INDICATES FEW OR NO CLOUDS BELOW 12,000 FEET WITH NO
SIGNIFICANT WEATHER AND/OR OBSTRUCTIONS TO VISIBILITY.

* - THESE STATIONS ARE NOT NWS STATIONS...THUS NOT UNDER NWS
QUALITY CONTROL.  THEY ALSO DO NOT REPORT WEATHER SUCH
AS PRECIPITATION OR FOG.

IAZ001>003-012>014-020>022-031>034-043>046-230200-
   NORTHWEST IOWA

CITY           SKY/WX    TMP DP  RH WIND       PRES   REMARKS
CARROLL *      CLEAR     61  32  33 N5        30.17S
CHEROKEE *     CLEAR     62  32  32 CALM      30.17F
DENISON *      CLEAR     63  32  31 CALM      30.19S
LE MARS *      CLEAR     64  34  32 CALM      30.19S
ORANGE CITY *  CLEAR     61  39  44 W3        30.18S
SHELDON *      CLEAR     63  34  34 W6        30.16S
SIOUX CITY     CLEAR     64  35  34 CALM      30.18S
SPENCER        CLEAR     61  36  39 W6        30.16F
STORM LAKE *   CLEAR     63  32  31 CALM      30.18S
$$

IAZ055>058-069>071-079>083-090>094-230200-
   SOUTHWEST IOWA

CITY           SKY/WX    TMP DP  RH WIND       PRES   REMARKS
ATLANTIC *     CLEAR     61  32  33 N6        30.17S
AUDUBON *      CLEAR     57  27  30 N6        30.19S
CLARINDA *     CLEAR     61  32  33 NE8       30.18S
COUNCIL BLFS * CLEAR     59  32  36 N8        30.18R
CRESTON *      CLEAR     57  30  35 NE7       30.17S
HARLAN  *      CLEAR     61  32  33 NE5       30.21S
LAMONI         CLOUDY    56  31  38 NE8       30.15S
RED OAK *      CLEAR     59  32  36 NE5       30.17S
SHENANDOAH *   CLEAR     61  32  33 NE6       30.17S
$$

IAZ047>049-059>061-072>074-084-230200-
   CENTRAL IOWA

CITY           SKY/WX    TMP DP  RH WIND       PRES   REMARKS
AMES           CLEAR     61  31  32 E3        30.16S
ANKENY *       CLEAR     59  30  33 NE6       30.17S
BOONE *        CLEAR     61  34  36 NE6       30.16S
CHARITON *     CLEAR     57  32  38 NE5       30.15S
DES MOINES     PTCLDY    63  24  22 NE3       30.16S
GRINNELL*      CLEAR     57  27  30 CALM      30.17S
KNOXVILLE *    CLEAR     61  27  27 NE6       30.14F
MARSHALLTOWN   CLEAR     60  31  33 NE3       30.16S
NEWTON *       CLEAR     59  27  29 NE6       30.15S
PELLA *        CLEAR     59  28  30 NE3       30.16S
PERRY *          N/A     63  26  25 NE5       30.16F
$$

IAZ004>006-015-016-023>025-035-036-230200-
   NORTH CENTRAL IOWA

CITY           SKY/WX    TMP DP  RH WIND       PRES   REMARKS
ALGONA *       CLEAR     63  34  34 CALM      30.16S
CLARION *      CLEAR     64  27  24 CALM      30.16F
ESTHERVILLE    CLEAR     63  35  35 W5        30.15F
FORT DODGE *   CLEAR     63  30  29 CALM      30.17F
MASON CITY     CLEAR     61  30  31 CALM      30.17S
FOREST CITY *    N/A     61  32  33 W3        30.16S
WEBSTER CITY * CLEAR     61  34  36 N5        30.15S
IOWA FALLS *     N/A     62  32  31 N3        30.18S
$$

IAZ007>011-017>019-026>030-037>042-050>054-066-230200-
   NORTHEAST IOWA

CITY           SKY/WX    TMP DP  RH WIND       PRES   REMARKS
CEDAR RAPIDS   CLEAR     58  29  33 NE3       30.15S
CHARLES CITY * CLEAR     63  32  31 W5        30.16F
CLINTON *      CLEAR     55  35  47 N8        30.16R
DECORAH *      CLEAR     61  25  25 CALM      30.14F
DUBUQUE        CLEAR     57  28  33 NE3       30.16S
MONTICELLO *   CLEAR     59  28  31 E3        30.15F
OELWEIN *      CLEAR     61  28  29 CALM      30.16F
WATERLOO       CLEAR     60  27  28 NW3       30.15F
$$

IAZ064-065-067-068-078-230200-
   EAST CENTRAL IOWA

CITY           SKY/WX    TMP DP  RH WIND       PRES   REMARKS
DAVENPORT      CLEAR     55  31  39 NE7       30.15S
IOWA CITY      CLEAR     60  30  32 NE7       30.16S
MT. PLEASANT * PTCLDY    57  31  37 NE8       30.15R
MUSCATINE *    CLEAR     57  32  38 NE6       30.15S
QUAD CITIES    CLEAR     60  29  30 NE6       30.14S
$$

IAZ062-063-075>077-085>089-095>099-230200-
   SOUTHEAST IOWA

CITY           SKY/WX    TMP DP  RH WIND       PRES   REMARKS
BURLINGTON     CLOUDY    57  35  43 N9        30.12S
FAIRFIELD *    CLEAR     57  30  35 NE7       30.15R
FORT MADISON * CLOUDY    57  36  44 N6        30.14S
KEOKUK *       PTCLDY    59  34  38 N5        30.12S
OSKALOOSA *      N/A     56  30  36 NE6       30.15S
CENTERVILLE *    N/A     55  32  41 CALM      30.16S
OTTUMWA        CLEAR     58  28  32 NE8       30.15S
WASHINGTON *   CLEAR     57  30  35 NE6       30.16S
$$

ABBREVIATIONS USED IN REMARKS
   TC - TEMPERATURES IN CELSIUS
  WCI - WIND CHILL INDEX
   HX - HEAT INDEX
  VSB - VISIBILITY
$$




USA.gov is the U.S. government's official web portal to all federal, state and local government web resources and services.